Location: Taunton
(51.0167°N, 3.1000°W)
Time: 14:54:26
(UTC+00:00)

Tiangong 2 - Visible Passes

Search period start: 18 December 2017 00:00
Search period end: 28 December 2017 00:00
Orbit: 387 x 389 km, 42.8° (Epoch: 18 December)

Date Brightness Start Highest point End Pass type
(mag) Time Alt. Az. Time Alt. Az. Time Alt. Az.
24 Dec 3.8 18:41:32 10° SSW 18:42:21 13° S 18:42:21 13° S visible
25 Dec 3.7 17:44:01 10° S 17:45:07 11° SSE 17:46:13 10° SE visible
25 Dec 4.5 19:18:53 10° SW 19:18:53 10° SW 19:18:53 10° SW visible
26 Dec 3.3 18:20:44 10° SW 18:22:54 17° S 18:23:08 17° SSE visible
27 Dec 3.6 17:22:45 10° SSW 17:24:37 15° SSE 17:26:30 10° SE visible
27 Dec 3.8 18:58:26 10° SW 18:59:39 16° SSW 18:59:39 16° SSW visible
